Free Severe Weather Alerts by Email and Text Message   

 
Follow iAlert.com on twitter @ialertcom
Search For Active Alerts in Your Area  
  Hi Guest:  [ Sign-up / Services ] [ Login ]

Current weather by "City, St" or "zip code"  

 

Advertise Here

Hazardous Weather Conditions

No active alerts for DENVER, COLORADO

Current Conditions: DENVER, COLORADO

Overcast


43.0 F

Last Updated on Oct 23 2017, 11:45 am MDT
Humidity: 61%
Wind Speed: E 11.5 mph
Barometer 30.47 in
Dewpoint: 30.2 F
Visibility: 30.00 mi
Precip: --
Heat Index: NA
Wind Chill: 37 F
Current conditions at:

Broomfield / Jeffco, CO (KBJC)

Lat: 39.90 Lon: -105.10

Local Radar Image active severe weather and emergency alerts image image weather storm and storm spotter reports image weather observation monitoring service image
Local
Radar
Active
Alerts
Storm Reports Weather
Monitoring

Weather Alert Notification Services


ialert severe weather and emergency alerts by text message and email ialert daily weather forecast by email and text message service ialert real-time weather-observation monitoring and alert notification service ialert storm report monitoring alert notification

Observation History for DENVER, COLORADO


Time Wind
(mph)
Vis
(mi)
Weather Precip (in) Temperature (F) Relative
Humidity
Wind
Chill
(°F)
Heat
Index
(°F)
Pressure
Air Dwpt altimeter
(in)
sea level
(mb)
11:45 am MDT E 11.5 30.00 Overcast -- 43.0 30.2 61% 37 NA 30.47 M
10:47 am MDT E 11.5 30.00 Overcast -- 41.0 30.2 66% 34 NA 30.47 M
9:49 am MDT E 11.5 30.00 Overcast -- 41.0 32.0 70% 34 NA 30.47 M
8:49 am MDT E 9.2 50.00 Overcast -- 41.0 32.0 70% 35 NA 30.48 M
7:50 am MDT E 10.4 G 21.9 50.00 Mostly Cloudy -- 41.0 32.0 70% 35 NA 30.41 M
6:47 am MDT NW 17.3 G 21.9 30.00 Mostly Cloudy -- 59.0 26.6 29% 56 NA 30.29 M
5:47 am MDT NW 9.2 30.00 Mostly Cloudy -- 59.0 28.4 31% 57 NA 30.26 M
4:50 am MDT N 0.0 10.00 Partly Cloudy -- 59.0 28.4 31% NA NA 30.22 M
3:46 am MDT NW 19.6 G 41.4 10.00 Fair -- 61.0 28.4 29% 58 NA 30.22 M
2:47 am MDT W 20.7 G 34.5 10.00 Fair and Breezy -- 61.0 26.6 27% 58 NA 30.22 M
1:51 am MDT NW 15.0 G 35.7 10.00 Fair -- 63.0 26.6 25% 61 NA 30.19 M
12:52 am MDT W 16.1 G 29.9 10.00 Fair -- 61.0 24.8 25% 59 NA 30.19 M
11:49 pm MDT W 15.0 G 21.9 10.00 Fair -- 63.0 26.6 25% 61 NA 30.19 M
10:50 pm MDT W 23.0 G 43.7 10.00 Fair and Breezy -- 64.0 24.8 22% NA NA 30.17 M
9:46 pm MDT W 21.9 G 28.8 20.00 Mostly Cloudy and Breezy -- 66.0 24.8 21% NA NA 30.15 M
8:46 pm MDT SW 25.3 G 40.3 20.00 Mostly Cloudy and Breezy -- 66.0 24.8 21% NA NA 30.15 M
6:47 pm MDT W 13.8 30.00 Mostly Cloudy -- 64.0 23.0 21% NA NA 30.13 M
5:47 pm MDT W 23.0 G 31.1 50.00 Mostly Cloudy and Breezy -- 66.0 21.2 18% NA NA 30.11 M
4:46 pm MDT W 31.1 G 42.6 50.00 Mostly Cloudy and Windy -- 66.0 19.4 17% NA NA 30.11 M
3:47 pm MDT W 13.8 70.00 Mostly Cloudy -- 64.0 23.0 21% NA NA 30.13 M
2:45 pm MDT W 9.2 70.00 Mostly Cloudy -- 63.0 23.0 22% 62 NA 30.13 M
1:50 pm MDT W 10.4 G 18.4 70.00 Mostly Cloudy -- 64.0 23.0 21% NA NA 30.14 M
12:46 pm MDT W 11.5 50.00 Partly Cloudy -- 66.0 26.6 22% NA NA 30.17 M

Regional Weather Observation:


Erie Municipal Airport, CO (KEIK)

Overcast
45.0 F

Boulder Municipal Airport, CO (KBDU)

Overcast
43.0 F

Fort Collins/Loveland - Northern Colorado Regional Airport, CO (KFNL)

Overcast
46.0 F

Buckley Air Force Base Airport, CO (KBKF)

Mostly Cloudy
46.0 F

Denver, Denver International Airport, CO (KDEN)

Partly Cloudy
47.0 F

Denver - Centennial Airport, CO (KAPA)

Overcast
39.0 F

Advertise Here


Advertise Here